This is the latest recevied weather packets stored in our database for station/object DJ2RF. If no packets are shown the sender has not sent any weather packets the latest 10 day(s).
| Time | Temp. | Humidity | Pressure | Rain* | Wind** | Luminosity | Snow |
|---|---|---|---|---|---|---|---|
| 1778050146 | 13.33° C | 79% | 1009.1 hPa | 0 mm | - | - | - |
| 1778049626 | 13.33° C | 79% | 1009.1 hPa | 0 mm | - | - | - |
| 1778049143 | 12.78° C | 80% | 1009 hPa | 0 mm | - | - | - |
| 1778048624 | 12.22° C | 82% | 1009.1 hPa | 0 mm | - | - | - |
| 1778048062 | 12.22° C | 82% | 1008.8 hPa | 0 mm | - | - | - |
| 1778047570 | 12.22° C | 83% | 1008.8 hPa | 0 mm | - | - | - |
| 1778046996 | 11.67° C | 83% | 1009.1 hPa | 0 mm | - | - | - |
| 1778045966 | 11.11° C | 84% | 1009.2 hPa | 0 mm | - | - | - |
| 1778045365 | 11.11° C | 84% | 1009.2 hPa | 0 mm | - | - | - |
| 1778044867 | 10.56° C | 84% | 1009.3 hPa | 0 mm | - | - | - |
| 1778044382 | 10.56° C | 84% | 1009.2 hPa | 0 mm | - | - | - |
| 1778043889 | 10.56° C | 84% | 1009.2 hPa | 0 mm | - | - | - |
| 1778043371 | 11.11° C | 84% | 1009.1 hPa | 0 mm | - | - | - |
| 1778042870 | 11.11° C | 84% | 1009.2 hPa | 0 mm | - | - | - |
| 1778042279 | 11.11° C | 84% | 1009.3 hPa | 0 mm | - | - | - |
| 1778041801 | 11.11° C | 84% | 1009.4 hPa | 0 mm | - | - | - |
| 1778041279 | 10.56° C | 84% | 1009.3 hPa | 0 mm | - | - | - |
| 1778040732 | 10.56° C | 84% | 1009.5 hPa | 0 mm | - | - | - |
| 1778040141 | 10.56° C | 85% | 1009.6 hPa | 0 mm | - | - | - |
| 1778039542 | 10.56° C | 85% | 1009.4 hPa | 0 mm | - | - | - |
| 1778038992 | 10.56° C | 85% | 1009.6 hPa | 0 mm | - | - | - |
| 1778038412 | 10.56° C | 85% | 1009.8 hPa | 0 mm | - | - | - |
| 1778037926 | 10° C | 86% | 1009.8 hPa | 0 mm | - | - | - |
| 1778037425 | 10° C | 85% | 1009.8 hPa | 0 mm | - | - | - |
| 1778036912 | 10° C | 85% | 1009.7 hPa | 0 mm | - | - | - |
* Rain latest hour (hover to see other rain measurements)
** Current wind speed in m/s (hover to see current wind gust speed)